Regional Weather Roundup
Issued by NWS

Home | Current Version | Previous Version | Text Only | Print | Product List | Glossary On
Versions: 1 2 3 4 5 6 7 8 9 10 11 12 13 14 15 16 17 18 19 20 21 22 23 24 25 26 27 28 29 30 31 32 33 34 35 36 37 38 39 40 41 42 43 44 45 46 47 48 49 50
000
ASHW40 PHFO 060443
RWRHI

WEATHER ROUNDUP FOR HAWAII
NATIONAL WEATHER SERVICE HONOLULU HI
600 PM HST THU MAR 05 2015

THIS IS AN AUTOMATED REPORT THAT HAS NOT BEEN QUALITY CONTROLLED.

NOTE..."FAIR" INDICATES FEW OR NO CLOUDS BELOW 12,000 FEET WITH NO
SIGNIFICANT WEATHER AND/OR OBSTRUCTIONS TO VISIBILITY.

* - THESE SITES REPORT LIMITED FIELDS

HIZ001>004-060500-
KAUAI-NIIHAU-

CITY           SKY/WX    TMP DP  RH WIND       PRES   REMARKS
LIHUE APT      LGT RAIN  72  59  63 N22G29    29.96R
PORT ALLEN*      N/A     73 N/A N/A NE18G25     N/A
POIPU*           N/A     73 N/A N/A N10G22      N/A
PRINCEVILLE*     N/A     68 N/A N/A MISG        N/A
KOKOLE POINT*  NOT AVBL
MOLOAA DAIRY*  NOT AVBL
WAIMEA HTS*    NOT AVBL
PUU OPAE*        N/A     61  50  67 NE12G26     N/A
PUU LUA*       NOT AVBL
MAKAHA RIDGE*  NOT AVBL
$$

HIZ005>011-060500-
OAHU-

CITY           SKY/WX    TMP DP  RH WIND       PRES   REMARKS
HONOLULU       CLOUDY    69  60  73 N15G23    29.90R
KALAELOA       PTCLDY    71  59  65 N12G25    29.91R
KANEOHE MCB    CLOUDY    72  60  66 NE21      29.90R
WHEELER FIELD  FAIR      67  59  74 N9G18     29.92R
BELLOWS*         N/A    N/A N/A N/A N13G22      N/A
KAHUKU*          N/A    N/A N/A N/A N5G15       N/A
WHEELER*       NOT AVBL
WAIANAE HARBOR NOT AVBL
DILLINGHAM*      N/A     70  59  68 MISG        N/A
KAHUKU TRN*      N/A     66  57  72 NE9G21      N/A
KAWAILOA*        N/A     64  59  82 NE6G15      N/A
KII*             N/A     72  61  68 N18G25      N/A
MAKUA RANGE*     N/A     72  59  64 NE16G26     N/A
OAHU FOREST NW   N/A     57  14  18 CALM        N/A
SCHOFIELD BRK*   N/A     66  57  72 MISG        N/A
SCHOFIELD S*   NOT AVBL
WAIANAE VLY*     N/A     64  59  82 NE12G31     N/A
KUAOKALA*        N/A     66  57  72 CALM        N/A
HONOULIUULI*   NOT AVBL
MOKUOLOE IS*     N/A    N/A N/A N/A MISG        N/A
PALEHUA*         N/A     72  57  60 CALM        N/A
WAIAWA PHB*    NOT AVBL
$$

HIZ012>013-060500-
MOLOKAI-

CITY           SKY/WX    TMP DP  RH WIND       PRES   REMARKS
MOLOKAI AIRPT  LGT RAIN  66  64  94 N7G18     29.92R
KALAUPAPA      NOT AVBL
MAKAPULAPAI*     N/A     68  64  88 E13G23      N/A
MOLOKAI 1*       N/A     59  59 100 N12G29      N/A
PUU ALII*        N/A     53  53 100 E2G13       N/A
$$

HIZ016-060500-
KAHOOLAWE-

CITY           SKY/WX    TMP DP  RH WIND       PRES   REMARKS
KAHOOLAWE*       N/A     64 N/A N/A NE20G28     N/A
HAKIOAWA*        N/A     65  62  89 MISG        N/A
HONOKANAIA*      N/A     72  61  68 N18G35    29.87S
KANELOA*         N/A     72  63  73 MISG      29.08S
KEALIALALO*    NOT AVBL
LUA MAKIKA*    NOT AVBL
$$

HIZ014>015-060500-
LANAI-

CITY           SKY/WX    TMP DP  RH WIND       PRES   REMARKS
LANAI CITY     FAIR      67  60  78 NE23G36   29.91R
LANAI 1*         N/A     64  64 100 NE23G36     N/A
$$

HIZ017>028-060500-
MAUI-

CITY           SKY/WX    TMP DP  RH WIND       PRES   REMARKS
KAHULUI        MOCLDY    73  61  65 NE16      29.91R
KAPALUA-W MAUI LGT RAIN  68  63  83 NE18      29.90
HANA AIRPORT   CLOUDY    70  64  83 N6        29.94R
HANA*            N/A     72 N/A N/A VRB7G14     N/A
HALEAKALA SUMM   N/A     41  41 100 W3G21       N/A
MAALAEA BAY*   NOT AVBL
HALEAKALA*     NOT AVBL
KAUPO GAP*       N/A     57  57 100 S3          N/A
KULA 1*          N/A     56  51  84 SW3         N/A
$$

HIZ023>026-060500-
BIG ISLAND OF HAWAII COAST AND LOWER SLOPES-

CITY           SKY/WX    TMP DP  RH WIND       PRES   REMARKS
KAILUA KONA    CLOUDY    76  66  71 N20       29.82R
HILO           CLOUDY    72  64  76 N14       29.87R
HONOKAA*       NOT AVBL
KAWAIHAE MWT*    N/A     82 N/A N/A W6          N/A
KAWAIHAE*        N/A     79 N/A N/A SW6         N/A
SOUTH POINT*     N/A     70 N/A N/A NE8G15      N/A
UPOLU AIRPORT*   N/A    N/A N/A N/A NE20G26     N/A
KAMUELA*       CLOUDY    61  61 100 N15       29.94R
HAKALAU*         N/A     52  49  88 NE6G12      N/A
KALOKO-HONOKO*   N/A     75  63  64 S3        29.83
PALI 2*          N/A     64  55  72 N14G21      N/A
KEALAKOMO*       N/A     75  59  57 N21G36      N/A
KAUPULEHU*       N/A     70  57  64 NE9G15      N/A
KAPAPALA*        N/A     68  62  79 CALM        N/A
LOWER KAHUKU*    N/A     61  57  88 NE1         N/A
PUHE CS*         N/A     79  64  61 SW3G9       N/A
PUHO CS*         N/A     75  63  66 SW1         N/A
PTA KEAMUKU*     N/A     61  55  82 CALM        N/A
WAIKOLOA*        N/A     70  57  64 E18G29      N/A
$$

HIZ027>028-060500-
BIG ISLAND OF HAWAII INTERIOR AND SUMMMITS-

CITY           SKY/WX    TMP DP  RH WIND       PRES   REMARKS
BRADSHAW FIELD CLOUDY    54  52  94 W5        30.13R
MK VISITOR CEN NOT AVBL
MAUNA KEA*       N/A     27   0  31 NW47        N/A  WCI   7
MAUNA LOA*       N/A     43  10  26 MISG        N/A
MAUNA LOA 1*   NOT AVBL
PTA KIPUKA*      N/A     55  54  94 NW3G9       N/A
PTA RANGE 17*    N/A     55  52  88 W6G12       N/A
PTA WEST*        N/A     61  54  77 W7G15       N/A
NENE CABIN*      N/A     50 N/A N/A E3          N/A
AHUMOA*          N/A     51  47  85 NE7G16      N/A
PTA PORTABLE*  NOT AVBL
PUU MALI*      NOT AVBL
$$

HIC003-060500-
NORTHWEST ISLANDS-

CITY           SKY/WX    TMP DP  RH WIND       PRES   REMARKS
MIDWAY ISLAND  CLOUDY    63  52  67 E18G29    30.32F
MIDWAY NOS*    NOT AVBL
FRENCH FRIGATE NOT AVBL
$$

PHZ110>124-180-060500-
BUOY REPORTS

STATION/POSITION TIME  TEMP    WIND        PRES    WAVE   SWELL
                       AIR SEA DIR/SP/G            HT/PER HT/DIR
                 (UTC) (F)     (DEG/KT/KT) (MB)    (FT/S) (FT/D)
BUOY 51001       NOT AVBL
BUOY 51101       0400   66 72   20/ 19/ 23 1017.3S  10/ 9   5/ 40
BUOY 51100       0300   70 75   30/ 16/ 19 1012.6R
BUOY 51003       0400   75 78   40/ 19/ 23 1011.3R  10/ 9
BUOY 51004       0327   75 78   40/ 14/ 17 1009.5R   7/ 9   5/100
BARBERS PT BUOY  NOT AVBL
WAIMEA BAY BUOY  0400      77                N/A     8/11
KAILUA BAY BUOY  0400      76                N/A     8/10   3/360
LANAI BUOY       0400      76                N/A     4/14   2/200
BARBERS PT 2     0400      77                N/A     4/13   2/250
PAUWELA MAUI     0400      75                N/A     9/11   3/350
HILO             0400      77                N/A     7/ 9   3/ 30
KANEOHE BAY BUOY 0400      76                N/A     9/10   3/360
HANALEI KAUAI    NOT AVBL
KAHULUI HARBOR   0400   69 75  340/ 15/ 18 1012.6R
HONOLULU HARBOR  0400   72 77   60/  6/ 17 1012.2R
KILO NALU        NOT AVBL
HILO HARBOR      0400   71 76  360/ 19/ 21 1011.1R
MOKUOLOE         0400   72 75   30/ 14/ 17 1013.2R
NAWILIWILI       0400   70 78   20/ 15/ 19 1014.3R
WHOTS BUOY       NOT AVBL
BUOY 51028       NOT AVBL
$$

......................KEY........................................
  SKY/WX - SKY CONDITIONS/PRESENT WEATHER
  TMP    - TEMPERATURE IN FAHRENHEIT
  DWPT   - DEWPOINT IN FAHRENHEIT
  RH     - RELATIVE HUMIDITY IN PERCENT
  WIND   - DIRECTION AND SPEED /MPH FOR ISLANDS...KTS FOR BUOYS/
  PRES   - MEAN SEA LEVEL PRESSURE IN INCHES OF HG
  VSB    - VISIBILITY IN MILES
  HX     - HEAT INDEX
  WCI    - WIND CHILL INDEX
  VRB    - VARIABLE WIND DIRECTION
  N/A    - NOT AVAILABLE


USA.gov is the U.S. government's official web portal to all federal, state and local government web resources and services.